• In Belarus
  • List of Countries
  • For 7 days
  • Water Temperature
  • Satellite Maps
  • Weather Map
  • Weather Widgets
  • user-avatar
    Login

    Hourly Weather Wagadugu

    Today, 17 October, Tuesday

    Time Temperature Precipitation Wind Pressure Humidity
    00:00 +29°C° 0 mm 2 mps 734 mmHg 18%
    01:00 +28°C° 0 mm 2 mps 734 mmHg 19%
    02:00 +27°C° 0 mm 2 mps 734 mmHg 20%
    03:00 +27°C° 0 mm 1 mps 734 mmHg 20%
    04:00 +26°C° 0 mm 1 mps 734 mmHg 21%
    05:00 +26°C° 0 mm 1 mps 734 mmHg 22%
    06:00 +25°C° 0 mm 1 mps 734 mmHg 23%
    07:00 +29°C° 0 mm 1 mps 734 mmHg 20%
    08:00 +32°C° 0 mm 2 mps 735 mmHg 17%
    09:00 +36°C° 0 mm 2 mps 735 mmHg 14%
    10:00 +38°C° 0 mm 4 mps 735 mmHg 11%
    11:00 +41°C° 0 mm 5 mps 735 mmHg 9%
    12:00 +44°C° 0 mm 6 mps 734 mmHg 7%
    13:00 +44°C° 0 mm 6 mps 734 mmHg 7%
    14:00 +44°C° 0 mm 6 mps 733 mmHg 7%
    15:00 +44°C° 0 mm 6 mps 732 mmHg 7%
    16:00 +41°C° 0 mm 5 mps 732 mmHg 8%
    17:00 +38°C° 0 mm 4 mps 732 mmHg 9%
    18:00 +36°C° 0 mm 3 mps 732 mmHg 10%
    19:00 +35°C° 0 mm 3 mps 733 mmHg 10%
    20:00 +34°C° 0 mm 3 mps 733 mmHg 11%
    21:00 +33°C° 0 mm 3 mps 734 mmHg 12%
    22:00 +31°C° 0 mm 3 mps 734 mmHg 12%
    23:00 +31°C° 0 mm 3 mps 734 mmHg 13%

    Tomorrow, 18 October, Wednesday

    Time Temperature Precipitation Wind Pressure Humidity
    00:00 +30°C° 0 mm 4 mps 734 mmHg 13%
    01:00 +29°C° 0 mm 3 mps 733 mmHg 14%
    02:00 +29°C° 0 mm 3 mps 733 mmHg 15%
    03:00 +28°C° 0 mm 3 mps 733 mmHg 15%
    04:00 +28°C° 0 mm 3 mps 733 mmHg 16%
    05:00 +27°C° 0 mm 3 mps 733 mmHg 16%
    06:00 +27°C° 0 mm 3 mps 733 mmHg 17%
    07:00 +30°C° 0 mm 3 mps 733 mmHg 15%
    08:00 +34°C° 0 mm 4 mps 734 mmHg 12%
    09:00 +39°C° 0 mm 5 mps 735 mmHg 10%
    10:00 +40°C° 0 mm 6 mps 734 mmHg 9%
    11:00 +42°C° 0 mm 6 mps 734 mmHg 8%
    12:00 +45°C° 0 mm 7 mps 733 mmHg 7%
    13:00 +45°C° 0 mm 7 mps 733 mmHg 7%
    14:00 +45°C° 0 mm 6 mps 732 mmHg 7%
    15:00 +45°C° 0 mm 6 mps 731 mmHg 7%
    16:00 +42°C° 0 mm 5 mps 731 mmHg 8%
    17:00 +38°C° 0 mm 4 mps 731 mmHg 9%
    18:00 +36°C° 0 mm 3 mps 731 mmHg 10%
    19:00 +35°C° 0 mm 3 mps 732 mmHg 11%
    20:00 +34°C° 0 mm 3 mps 732 mmHg 11%
    21:00 +33°C° 0 mm 3 mps 733 mmHg 12%
    22:00 +31°C° 0 mm 2 mps 733 mmHg 13%
    23:00 +30°C° 0 mm 2 mps 733 mmHg 14%

    Day after tomorrow, 19 October, Thursday

    Time Temperature Precipitation Wind Pressure Humidity
    00:00 +29°C° 0 mm 2 mps 733 mmHg 14%
    01:00 +28°C° 0 mm 2 mps 732 mmHg 15%
    02:00 +28°C° 0 mm 2 mps 732 mmHg 15%
    03:00 +27°C° 0 mm 2 mps 732 mmHg 16%
    04:00 +27°C° 0 mm 2 mps 732 mmHg 16%
    05:00 +27°C° 0 mm 2 mps 732 mmHg 16%
    06:00 +27°C° 0 mm 3 mps 733 mmHg 17%
    07:00 +29°C° 0 mm 3 mps 733 mmHg 16%
    08:00 +33°C° 0 mm 3 mps 734 mmHg 15%
    09:00 +35°C° 0 mm 3 mps 735 mmHg 14%
    10:00 +37°C° 0 mm 4 mps 734 mmHg 12%
    11:00 +40°C° 0 mm 4 mps 734 mmHg 10%
    12:00 +42°C° 0 mm 5 mps 733 mmHg 8%
    13:00 +43°C° 0 mm 5 mps 732 mmHg 8%
    14:00 +43°C° 0 mm 5 mps 732 mmHg 7%
    15:00 +43°C° 0 mm 5 mps 731 mmHg 7%
    16:00 +41°C° 0 mm 4 mps 731 mmHg 9%
    17:00 +38°C° 0 mm 4 mps 731 mmHg 11%
    18:00 +35°C° 0 mm 3 mps 731 mmHg 13%
    19:00 +34°C° 0 mm 3 mps 732 mmHg 17%
    20:00 +33°C° 0 mm 3 mps 732 mmHg 20%
    21:00 +31°C° 0 mm 2 mps 733 mmHg 24%
    22:00 +30°C° 0 mm 2 mps 733 mmHg 25%
    23:00 +30°C° 0 mm 2 mps 733 mmHg 26%

    20 October, Friday

    Time Temperature Precipitation Wind Pressure Humidity
    00:00 +29°C° 0 mm 2 mps 733 mmHg 27%
    01:00 +29°C° 0 mm 2 mps 732 mmHg 29%
    02:00 +29°C° 0 mm 2 mps 732 mmHg 32%
    03:00 +28°C° 0 mm 2 mps 732 mmHg 34%
    04:00 +28°C° 0 mm 2 mps 732 mmHg 39%
    05:00 +27°C° 0 mm 2 mps 732 mmHg 44%
    06:00 +26°C° 0 mm 2 mps 732 mmHg 49%
    07:00 +29°C° 0 mm 3 mps 733 mmHg 46%
    08:00 +31°C° 0 mm 3 mps 733 mmHg 43%
    09:00 +34°C° 0 mm 3 mps 734 mmHg 40%
    10:00 +36°C° 0 mm 3 mps 734 mmHg 32%
    11:00 +38°C° 0 mm 3 mps 733 mmHg 24%
    12:00 +40°C° 0 mm 3 mps 733 mmHg 17%
    13:00 +42°C° 0 mm 3 mps 732 mmHg 15%
    14:00 +42°C° 0 mm 4 mps 731 mmHg 13%
    15:00 +43°C° 0 mm 4 mps 731 mmHg 11%
    16:00 +41°C° 0 mm 4 mps 731 mmHg 11%
    17:00 +38°C° 0 mm 3 mps 731 mmHg 12%
    18:00 +36°C° 0 mm 3 mps 731 mmHg 13%
    19:00 +35°C° 0 mm 2 mps 732 mmHg 15%
    20:00 +32°C° 0 mm 2 mps 732 mmHg 16%
    21:00 +31°C° 0 mm 2 mps 733 mmHg 18%
    22:00 +31°C° 0 mm 2 mps 733 mmHg 18%
    23:00 +30°C° 0 mm 2 mps 732 mmHg 19%

    21 October, Saturday

    Time Temperature Precipitation Wind Pressure Humidity
    00:00 +29°C° 0 mm 2 mps 732 mmHg 19%
    01:00 +29°C° 0 mm 2 mps 732 mmHg 18%
    02:00 +29°C° 0 mm 2 mps 732 mmHg 17%
    03:00 +29°C° 0 mm 2 mps 732 mmHg 15%
    04:00 +28°C° 0 mm 3 mps 732 mmHg 16%
    05:00 +28°C° 0 mm 3 mps 732 mmHg 17%
    06:00 +27°C° 0 mm 3 mps 733 mmHg 17%
    07:00 +30°C° 0 mm 3 mps 733 mmHg 19%
    08:00 +33°C° 0 mm 3 mps 734 mmHg 21%
    09:00 +36°C° 0 mm 3 mps 734 mmHg 23%
    10:00 +37°C° 0 mm 3 mps 734 mmHg 20%
    11:00 +39°C° 0 mm 3 mps 733 mmHg 16%
    12:00 +42°C° 0 mm 3 mps 732 mmHg 13%
    13:00 +43°C° 0 mm 3 mps 732 mmHg 12%
    14:00 +43°C° 0 mm 3 mps 731 mmHg 11%
    15:00 +44°C° 0 mm 4 mps 731 mmHg 9%
    16:00 +42°C° 0 mm 3 mps 731 mmHg 10%
    17:00 +38°C° 0 mm 3 mps 731 mmHg 12%
    18:00 +36°C° 0 mm 2 mps 731 mmHg 13%
    19:00 +35°C° 0 mm 2 mps 731 mmHg 15%
    20:00 +32°C° 0 mm 2 mps 732 mmHg 17%
    21:00 +31°C° 0 mm 2 mps 732 mmHg 19%
    22:00 +30°C° 0 mm 2 mps 732 mmHg 21%
    23:00 +29°C° 0 mm 1 mps 732 mmHg 22%

    22 October, Sunday

    Time Temperature Precipitation Wind Pressure Humidity
    00:00 +29°C° 0 mm 1 mps 732 mmHg 24%
    01:00 +28°C° 0 mm 1 mps 732 mmHg 24%
    02:00 +28°C° 0 mm 1 mps 731 mmHg 25%
    03:00 +27°C° 0 mm 2 mps 731 mmHg 25%
    04:00 +27°C° 0 mm 2 mps 731 mmHg 28%
    05:00 +27°C° 0 mm 2 mps 732 mmHg 31%
    06:00 +27°C° 0 mm 3 mps 732 mmHg 34%
    07:00 +29°C° 0 mm 3 mps 733 mmHg 35%
    08:00 +33°C° 0 mm 3 mps 733 mmHg 36%
    09:00 +35°C° 0 mm 3 mps 734 mmHg 37%
    10:00 +37°C° 0 mm 3 mps 733 mmHg 30%
    11:00 +39°C° 0 mm 2 mps 732 mmHg 23%
    12:00 +41°C° 0 mm 2 mps 732 mmHg 16%
    13:00 +42°C° 0 mm 2 mps 731 mmHg 14%
    14:00 +43°C° 0 mm 3 mps 731 mmHg 12%
    15:00 +44°C° 0 mm 3 mps 730 mmHg 10%
    16:00 +42°C° 0 mm 3 mps 730 mmHg 11%
    17:00 +39°C° 0 mm 3 mps 730 mmHg 13%
    18:00 +36°C° 0 mm 3 mps 731 mmHg 14%
    19:00 +35°C° 0 mm 3 mps 731 mmHg 17%
    20:00 +34°C° 0 mm 2 mps 731 mmHg 19%
    21:00 +31°C° 0 mm 2 mps 732 mmHg 22%
    22:00 +30°C° 0 mm 2 mps 732 mmHg 24%
    23:00 +29°C° 0 mm 1 mps 732 mmHg 27%
    Show more